(229014) = 2003 YN27

Discovered at Kitt Peak on 2003-12-17 by Spacewatch.

Orbit

Orbit type: Main Belt

Note: WebGL enabled browser required.

epoch2023-02-25.0
epoch JD2460000.5
perihelion date2021-10-03.77515
perihelion JD2459491.27515
argument of perihelion (°)206.55841
ascending node (°)264.41179
inclination (°)25.05646
eccentricity0.1005167
perihelion distance (AU)2.8702321
Tisserand w.r.t. Jupiter3.0
ΔV w.r.t. Earth (km/sec)13.1
semimajor axis (AU)3.1909786
mean anomaly (°)88.04964
mean daily motion (°/day)0.17290920
aphelion distance (AU)3.512
period (years)5.7
P-vector [x]-0.31600519
P-vector [y]0.92827641
P-vector [z]0.19607044
Q-vector [x]-0.84998812
Q-vector [y]-0.18518468
Q-vector [z]-0.49318033
absolute magnitude14.72
phase slope0.15
uncertainty0
referenceMPO 745323
observations used610
oppositions13
arc length (days)7111
first opposition used2003
last opposition used2023
residual rms (arc-secs)0.73
perturbers coarse indicatorM-v
perturbers precise indicator003Ek
first observation date used2003-11-20.0
last observation date used2023-05-10.0
computer nameMPCLINUX
JD of orbit computation2456966.825009
perihelion JD uncertainty (days)4.0086E-04
argument of perihelion uncertainty (°)7.4191E-05
ascending node uncertainty (°)1.6620E-05
inclination uncertainty (°)1.0579E-05
eccentricity uncertainty 1.1788E-07
perihelion distance uncertainty (AU)3.8511E-07
Minimum Orbit Intersection Distances (in AU)
for orbit epoch: 2460000.5, reference: E2023-J99
Mercury2.56897
Venus2.16448
Earth1.90039
Mars1.31555
Jupiter1.76442
Saturn6.16406
Uranus15.6557
Neptune26.8577

Observations

619 total observations over interval: 2003 11 20.32671 – 2023 05 10.380120
These data are available for download (format description).

Date (UT) J2000 RA J2000 Dec Magn Location Ref
2003 11 20.32671 03 21 55.77 +36 48 08.8 19.5   704 – Lincoln Laboratory ETS, New Mexico MPS 110703
2003 11 20.34856 03 21 54.65 +36 47 56.7 19.2   704 – Lincoln Laboratory ETS, New Mexico MPS 110703
2003 11 20.37995 03 21 52.86 +36 47 38.1 19.4   704 – Lincoln Laboratory ETS, New Mexico MPS 110703
2003 11 20.40522 03 21 51.42 +36 47 23.1 19.5   704 – Lincoln Laboratory ETS, New Mexico MPS 110703
2003 11 20.42895 03 21 50.01 +36 47 09.7 19.4   704 – Lincoln Laboratory ETS, New Mexico MPS 110703
2003 12 03.20095 03 10 49.72 +34 31 44.6 18.8   704 – Lincoln Laboratory ETS, New Mexico MPS 110703
2003 12 03.21436 03 10 49.08 +34 31 34.8 19.2   704 – Lincoln Laboratory ETS, New Mexico MPS 110703
2003 12 03.22733 03 10 48.39 +34 31 26.4 19.1   704 – Lincoln Laboratory ETS, New Mexico MPS 110703
2003 12 03.24023 03 10 47.78 +34 31 17.3 19.2   704 – Lincoln Laboratory ETS, New Mexico MPS 110703
2003 12 03.25337 03 10 47.14 +34 31 08.0 19.0   704 – Lincoln Laboratory ETS, New Mexico MPS 110703
2003 12 17.06284 03 02 19.19 +31 51 39.9 19.7 V 691 – Steward Observatory, Kitt Peak-Spacewatch MPS 94897
2003 12 17.09049 03 02 18.41 +31 51 21.1 20.0 V 691 – Steward Observatory, Kitt Peak-Spacewatch MPS 94897
2003 12 17.11747 03 02 17.65 +31 51 02.5 19.7 V 691 – Steward Observatory, Kitt Peak-Spacewatch MPS 94897
2003 12 19.12921 03 01 26.96 +31 27 59.5 19.2   704 – Lincoln Laboratory ETS, New Mexico MPS 94897
2003 12 19.14236 03 01 26.58 +31 27 50.9 19.7   704 – Lincoln Laboratory ETS, New Mexico MPS 94897
2003 12 19.15547 03 01 26.24 +31 27 42.9 19.0   704 – Lincoln Laboratory ETS, New Mexico MPS 94897
2003 12 19.16880 03 01 25.95 +31 27 32.8 19.3   704 – Lincoln Laboratory ETS, New Mexico MPS 94897
2003 12 19.18200 03 01 25.55 +31 27 24.6 19.1   704 – Lincoln Laboratory ETS, New Mexico MPS 94897
2003 12 20.11841 03 01 04.30 +31 16 45.6 18.5   704 – Lincoln Laboratory ETS, New Mexico MPS 94897
2003 12 20.13187 03 01 04.12 +31 16 36.6 19.3   704 – Lincoln Laboratory ETS, New Mexico MPS 94897
2003 12 20.14510 03 01 03.68 +31 16 26.8 19.4   704 – Lincoln Laboratory ETS, New Mexico MPS 94897
2003 12 20.15836 03 01 03.36 +31 16 17.8 19.1   704 – Lincoln Laboratory ETS, New Mexico MPS 94897
2003 12 20.17172 03 01 03.05 +31 16 10.0 19.4   704 – Lincoln Laboratory ETS, New Mexico MPS 94897
2003 12 21.13302 03 00 42.77 +31 05 17.8 19.0   704 – Lincoln Laboratory ETS, New Mexico MPS 94897
2003 12 21.14637 03 00 42.47 +31 05 09.1 19.3   704 – Lincoln Laboratory ETS, New Mexico MPS 94897
2003 12 21.16036 03 00 42.16 +31 04 59.2 19.5   704 – Lincoln Laboratory ETS, New Mexico MPS 94897
2003 12 21.17339 03 00 41.85 +31 04 50.5 19.2   704 – Lincoln Laboratory ETS, New Mexico MPS 94897
2003 12 21.18696 03 00 41.64 +31 04 42.0 19.2   704 – Lincoln Laboratory ETS, New Mexico MPS 94897
2003 12 29.14243 02 58 51.38 +29 37 58.1 19.3   704 – Lincoln Laboratory ETS, New Mexico MPS 95881
2003 12 29.15701 02 58 51.29 +29 37 48.1 19.8   704 – Lincoln Laboratory ETS, New Mexico MPS 95881
2003 12 29.16984 02 58 51.06 +29 37 40.2 19.6   704 – Lincoln Laboratory ETS, New Mexico MPS 95881
2004 01 11.09422 02 59 29.23 +27 33 23.7 19.1   644 – Palomar Mountain/NEAT MPS 96648
2004 01 11.11503 02 59 29.47 +27 33 12.9 18.7   644 – Palomar Mountain/NEAT MPS 96648
2004 01 11.13704 02 59 29.73 +27 33 01.3 18.8   644 – Palomar Mountain/NEAT MPS 96648
2005 01 18.30396 09 28 38.39 -16 04 46.8 19.8 V 291 – LPL/Spacewatch II MPS 126393
2005 01 18.31234 09 28 38.00 -16 04 49.9 20.0 V 291 – LPL/Spacewatch II MPS 126393
2005 01 18.32028 09 28 37.64 -16 04 53.2 20.0 V 291 – LPL/Spacewatch II MPS 126393
2005 02 04.30937 09 14 21.98 -17 14 44.8 19.1   704 – Lincoln Laboratory ETS, New Mexico MPS 126394
2005 02 04.32190 09 14 21.26 -17 14 45.0 18.7   704 – Lincoln Laboratory ETS, New Mexico MPS 126394
2005 02 04.33444 09 14 20.57 -17 14 46.6 19.0   704 – Lincoln Laboratory ETS, New Mexico MPS 126394
2005 02 04.34728 09 14 19.91 -17 14 48.2 18.8   704 – Lincoln Laboratory ETS, New Mexico MPS 126394
2008 10 31.08339 22 35 05.38 +25 40 11.3 20.1 V 703 – Catalina Sky Survey MPS 265211
2008 10 31.09066 22 35 05.42 +25 40 09.1 20.1 V 703 – Catalina Sky Survey MPS 265211
2008 10 31.09801 22 35 05.42 +25 40 04.7 19.8 V 703 – Catalina Sky Survey MPS 265211
2008 10 31.10525 22 35 05.56 +25 40 00.6 19.9 V 703 – Catalina Sky Survey MPS 265211
2008 11 04.14479 22 35 21.93 +25 03 59.7 19.8   704 – Lincoln Laboratory ETS, New Mexico MPS 263155
2008 11 04.15660 22 35 21.97 +25 03 51.9 20.2   704 – Lincoln Laboratory ETS, New Mexico MPS 263155
2008 11 04.16845 22 35 21.99 +25 03 47.1 20.0   704 – Lincoln Laboratory ETS, New Mexico MPS 263155
2008 11 04.18036 22 35 22.12 +25 03 41.2 19.8   704 – Lincoln Laboratory ETS, New Mexico MPS 263155
2009 11 10.43763 05 46 41.37 +29 44 57.8 19.2 V 691 – Steward Observatory, Kitt Peak-Spacewatch MPS 302146
2009 11 10.45484 05 46 40.79 +29 44 51.9 19.3 V 691 – Steward Observatory, Kitt Peak-Spacewatch MPS 302146
2009 11 10.47205 05 46 40.20 +29 44 46.1 19.4 V 691 – Steward Observatory, Kitt Peak-Spacewatch MPS 302146
2009 11 11.33339 05 46 12.24 +29 39 52.9 19.8   704 – Lincoln Laboratory ETS, New Mexico MPS 302146
2009 11 11.34574 05 46 11.78 +29 39 49.3 19.9   704 – Lincoln Laboratory ETS, New Mexico MPS 302146
2009 11 11.37045 05 46 10.96 +29 39 40.1 19.7   704 – Lincoln Laboratory ETS, New Mexico MPS 302146
2009 11 17.33416 05 42 23.83 +29 03 35.4 19.9   704 – Lincoln Laboratory ETS, New Mexico MPS 303255
2009 11 17.34658 05 42 23.37 +29 03 29.9 19.8   704 – Lincoln Laboratory ETS, New Mexico MPS 303255
2009 11 17.35900 05 42 22.80 +29 03 24.1 19.7   704 – Lincoln Laboratory ETS, New Mexico MPS 303255
2009 11 17.37154 05 42 22.24 +29 03 20.2 19.8   704 – Lincoln Laboratory ETS, New Mexico MPS 303255
2009 11 17.40316 05 42 20.80 +29 03 06.9 18.5 V G96 – Mt. Lemmon Survey MPS 303255
2009 11 17.40853 05 42 20.55 +29 03 04.8 18.3 V G96 – Mt. Lemmon Survey MPS 303255
2009 11 17.41388 05 42 20.30 +29 03 02.8 18.3 V G96 – Mt. Lemmon Survey MPS 303255
2009 11 17.41927 05 42 20.08 +29 03 00.7 18.3 V G96 – Mt. Lemmon Survey MPS 303255
2009 11 18.36019 05 41 39.47 +28 56 57.1 19.2 V 691 – Steward Observatory, Kitt Peak-Spacewatch MPS 303255
2009 11 18.37790 05 41 38.68 +28 56 50.2 19.3 V 691 – Steward Observatory, Kitt Peak-Spacewatch MPS 303255
2009 11 18.39592 05 41 37.81 +28 56 43.7 20.4 V 691 – Steward Observatory, Kitt Peak-Spacewatch MPS 303255
2009 11 19.32056 05 40 56.83 +28 50 39.4 19.4 V 691 – Steward Observatory, Kitt Peak-Spacewatch MPS 303255
2009 11 19.33828 05 40 55.97 +28 50 32.5 19.6 V 691 – Steward Observatory, Kitt Peak-Spacewatch MPS 303255
2009 11 19.35600 05 40 55.16 +28 50 25.2 20.7 V 691 – Steward Observatory, Kitt Peak-Spacewatch MPS 303255
2009 11 22.32517 05 38 35.33 +28 30 18.6 20.0   704 – Lincoln Laboratory ETS, New Mexico MPS 304845
2009 11 22.33758 05 38 34.81 +28 30 13.4 19.8   704 – Lincoln Laboratory ETS, New Mexico MPS 304845
2009 11 22.35003 05 38 34.17 +28 30 08.1 19.4   704 – Lincoln Laboratory ETS, New Mexico MPS 304845
2009 11 22.36262 05 38 33.57 +28 30 02.5 19.4   704 – Lincoln Laboratory ETS, New Mexico MPS 304845
2009 11 26.40458 05 35 06.97 +28 01 03.3 19.2 V 691 – Steward Observatory, Kitt Peak-Spacewatch MPS 304845
2009 11 26.42574 05 35 05.82 +28 00 53.8 19.2 V 691 – Steward Observatory, Kitt Peak-Spacewatch MPS 304845
2009 11 26.44344 05 35 04.82 +28 00 46.9 19.0 V 691 – Steward Observatory, Kitt Peak-Spacewatch MPS 304845
2009 12 10.25907 05 21 46.83 +26 09 16.6 19.1   704 – Lincoln Laboratory ETS, New Mexico MPS 306614
2009 12 10.27179 05 21 46.04 +26 09 10.0 19.5   704 – Lincoln Laboratory ETS, New Mexico MPS 306614
2009 12 10.28461 05 21 45.27 +26 09 03.5 19.7   704 – Lincoln Laboratory ETS, New Mexico MPS 306614
2009 12 10.29734 05 21 44.44 +26 08 57.5 19.8   704 – Lincoln Laboratory ETS, New Mexico MPS 306614
2009 12 10.31006 05 21 43.69 +26 08 49.8 19.8   704 – Lincoln Laboratory ETS, New Mexico MPS 306614
2009 12 11.38226 05 20 38.94 +25 59 31.3 17.4 V G96 – Mt. Lemmon Survey MPS 306614
2009 12 11.38748 05 20 38.54 +25 59 27.6 18.6 V G96 – Mt. Lemmon Survey MPS 306614
